This is the latest recevied weather packets stored in our database for station/object VE1UHF-4. If no packets are shown the sender has not sent any weather packets the latest 10 day(s).
| Time | Temp. | Humidity | Pressure | Rain* | Wind** | Luminosity | Snow |
|---|---|---|---|---|---|---|---|
| 1777830428 | 12.22° C | 79% | 997.6 hPa | 0 mm | - | - | - |
| 1777829527 | 12.22° C | 79% | 997.8 hPa | 0 mm | - | - | - |
| 1777828627 | 12.78° C | 79% | 998.7 hPa | 0 mm | - | - | - |
| 1777827726 | 12.78° C | 79% | 999.4 hPa | 0 mm | - | - | - |
| 1777826826 | 12.78° C | 80% | 1000 hPa | 0 mm | - | - | - |
| 1777825925 | 12.78° C | 80% | 1000.3 hPa | 0 mm | - | - | - |
| 1777825025 | 12.78° C | 80% | 1000.8 hPa | 0 mm | - | - | - |
| 1777824124 | 12.78° C | 81% | 1001.4 hPa | 0 mm | - | - | - |
| 1777823223 | 12.78° C | 81% | 1001.6 hPa | 0 mm | - | - | - |
| 1777820522 | 12.78° C | 81% | 1002.7 hPa | 0 mm | - | - | - |
| 1777819621 | 12.78° C | 81% | 1003.2 hPa | 0 mm | - | - | - |
| 1777818721 | 12.78° C | 80% | 1004 hPa | 0 mm | - | - | - |
| 1777817820 | 12.78° C | 80% | 1004.2 hPa | 0 mm | - | - | - |
| 1777816920 | 12.78° C | 81% | 1004.3 hPa | 0 mm | - | - | - |
| 1777816019 | 12.78° C | 81% | 1004.5 hPa | 0 mm | - | - | - |
| 1777815120 | 12.22° C | 81% | 1004 hPa | 0 mm | - | - | - |
| 1777814218 | 12.22° C | 82% | 1003.9 hPa | 0 mm | - | - | - |
| 1777813318 | 11.67° C | 82% | 1003.8 hPa | 0 mm | - | - | - |
| 1777812417 | 11.67° C | 82% | 1003.7 hPa | 0 mm | - | - | - |
| 1777810616 | 11.11° C | 82% | 1004.3 hPa | 0 mm | - | - | - |
| 1777809715 | 11.11° C | 80% | 1004.4 hPa | 0 mm | - | - | - |
| 1777808815 | 10.56° C | 80% | 1004.6 hPa | 0 mm | - | - | - |
| 1777807014 | 10.56° C | 80% | 1005.1 hPa | 0 mm | - | - | - |
| 1777806113 | 10.56° C | 81% | 1005.1 hPa | 0 mm | - | - | - |
| 1777805213 | 10.56° C | 80% | 1005.2 hPa | 0 mm | - | - | - |
* Rain since midnight (hover to see other rain measurements)
** Current wind speed in m/s (hover to see current wind gust speed)